This is the latest recevied weather packets stored in our database for station/object K4XP. If no packets are shown the sender has not sent any weather packets the latest 1 day(s).
| Time | Temp. | Humidity | Pressure | Rain* | Wind** | Luminosity | Snow |
|---|---|---|---|---|---|---|---|
| 1778081111 | 21.11° C | 73% | 1014.3 hPa | 0 mm | - | - | - |
| 1778080825 | 21.11° C | 74% | 1014.4 hPa | 0 mm | - | - | - |
| 1778080220 | 20.56° C | 76% | 1014.4 hPa | 0 mm | - | - | - |
| 1778077217 | 19.44° C | 77% | 1013.8 hPa | 0 mm | - | - | - |
| 1778076913 | 19.44° C | 78% | 1013.9 hPa | 0 mm | - | - | - |
| 1778076026 | 19.44° C | 78% | 1014 hPa | 0 mm | - | - | - |
| 1778075418 | 18.89° C | 78% | 1013.8 hPa | 0 mm | - | - | - |
| 1778073325 | 18.33° C | 80% | 1014.1 hPa | 0 mm | - | - | - |
| 1778071825 | 17.78° C | 80% | 1013.8 hPa | 0 mm | - | - | - |
| 1778071525 | 17.78° C | 80% | 1013.7 hPa | 0 mm | - | - | - |
| 1778070630 | 17.78° C | 80% | 1013.6 hPa | 0 mm | - | - | - |
| 1778068516 | 16.67° C | 82% | 1014 hPa | 0 mm | - | - | - |
| 1778067926 | 16.67° C | 82% | 1014.3 hPa | 0 mm | - | - | - |
| 1778066723 | 16.67° C | 82% | 1013.9 hPa | 0 mm | - | - | - |
| 1778065525 | 16.67° C | 82% | 1013.4 hPa | 0 mm | - | - | - |
| 1778065220 | 16.67° C | 82% | 1013.4 hPa | 0 mm | - | - | - |
| 1778064919 | 16.11° C | 82% | 1013.4 hPa | 0 mm | - | - | - |
| 1778063430 | 16.11° C | 81% | 1012.9 hPa | 0 mm | - | - | - |
| 1778061614 | 16.67° C | 80% | 1012.7 hPa | 0 mm | - | - | - |
| 1778061327 | 16.67° C | 80% | 1012.7 hPa | 0 mm | - | - | - |
| 1778061022 | 17.22° C | 79% | 1012.9 hPa | 0 mm | - | - | - |
| 1778060716 | 17.22° C | 79% | 1012.9 hPa | 0 mm | - | - | - |
| 1778060416 | 17.22° C | 79% | 1013 hPa | 0 mm | - | - | - |
| 1778059824 | 17.22° C | 79% | 1013.2 hPa | 0 mm | - | - | - |
| 1778057423 | 17.78° C | 77% | 1013.1 hPa | 0 mm | - | - | - |
* Rain latest hour (hover to see other rain measurements)
** Current wind speed in m/s (hover to see current wind gust speed)